x

Charlevoix, Charlevoix Municipal Airport Weather Station

5:54pm - Fri 12th Feb 2016 All times are CST. -6 hours from GMT.

  • Wind
    24mph, 36mph gusts
  • Air Temp 8°f
  • Sea Pressure 1022.7mb
  • Charlevoix, Charlevoix Municipal Airport
  • Charlevoix, Charlevoix Municipal Airport

More Historic Weather Station data

Upgrade to MSW Pro to gain access to the past 30 days of data for over 8000 Wavebouys and Weather Stations around the globe.

Join Pro

Comparision Forecast

View Surf forecast
   
Fri 02/12 5:54pm 24 36 mph 1022.7mb 8f
5:34pm 22 37 mph 1022.4mb 8f
5:15pm 23 36 mph 1022mb 8f
4:54pm 25 35 mph 1021.3mb 8f
4:34pm 21 32 mph 1021mb 9f
4:15pm 21 33 mph 1020.7mb 10f
3:54pm 24 32 mph 1020mb 10f
3:34pm 23 33 mph 1019.6mb 11f
3:15pm 27 36 mph 1019.3mb 11f
2:54pm 20 37 mph 1018.6mb 12f
2:35pm 20 36 mph 1018.3mb 12f
2:15pm 27 35 mph 1018.3mb 12f
1:54pm 21 36 mph 1017.6mb 13f
1:35pm 25 36 mph 1017.3mb 13f
1:15pm 22 36 mph 1016.9mb 13f
12:54pm 23 32 mph 1016.6mb 13f
12:35pm 27 33 mph 1015.9mb 15f
12:15pm 18 31 mph 1015.6mb 17f
11:54am 21 29 mph 1015.6mb 17f
11:35am 21 32 mph 1015.2mb 16f
11:15am 23 31 mph 1014.9mb 17f
10:54am 18 31 mph 1014.9mb 18f
10:35am 22 32 mph 1014.6mb 18f
10:15am 23 32 mph 1014.6mb 18f
9:54am 21 35 mph 1014.6mb 18f
9:35am 21 28 mph 1014.2mb 18f
9:14am 23 35 mph 1014.2mb 18f
8:54am 22 33 mph 1014.2mb 18f
8:35am 20 30 mph 1014.6mb 19f
8:14am 17 29 mph 1014.6mb 18f
7:54am 23 28 mph 1014.6mb 18f
7:35am 22 31 mph 1014.6mb 18f
7:14am 20 28 mph 1014.9mb 18f
6:54am 22 29 mph 1014.6mb 18f
6:35am 20 30 mph 1014.6mb 18f
6:14am 24 31 mph 1014.6mb 19f
5:54am 22 28 mph 1014.6mb 19f
5:35am 17 29 mph 1014.9mb 19f
5:14am 22 28 mph 1014.9mb 19f
4:54am 21 31 mph 1014.9mb 19f
4:35am 22 29 mph 1014.9mb 20f
4:14am 23 29 mph 1014.9mb 20f
3:55am 21 28 mph 1015.2mb 19f
3:35am 21 28 mph 1015.2mb 20f
3:14am 21 27 mph 1015.6mb 19f
2:55am 20 30 mph 1015.6mb 20f
2:35am 20 28 mph 1015.9mb 20f
2:14am 18 29 mph 1015.9mb 20f
1:55am 18 27 mph 1016.3mb 20f
1:35am 20 29 mph 1016.6mb 20f
1:14am 20 25 mph 1016.6mb 20f
12:55am 21 30 mph 1016.6mb 21f
12:35am 21 30 mph 1016.6mb 22f
12:14am 18 28 mph 1016.9mb 22f
Thu 02/11 11:55pm 25 31 mph 1017.3mb 22f
11:35pm 24 31 mph 1017.6mb 22f
11:14pm 22 28 mph 1018mb 23f
10:55pm 15 21 mph 1018.3mb 22f
10:35pm 15 25 mph 1018.3mb 22f
10:14pm 7
mph
1018.6mb 21f
9:55pm 10 18 mph 1019mb 21f
9:34pm 12 18 mph 1019.6mb 21f
9:14pm 14 20 mph 1019.6mb 21f
8:55pm 14
mph
1020mb 21f
8:34pm 14 18 mph 1020.3mb 20f
8:14pm 10
mph
1020.7mb 20f
7:55pm 9 14 mph 1020.7mb 20f
7:34pm 14 18 mph 1021mb 20f
7:14pm 10
mph
1021.3mb 20f
6:55pm 13 17 mph 1021.3mb 20f
6:34pm 13 21 mph 1021.7mb 19f
6:14pm 18 23 mph 1021.7mb 19f
5:55pm 14 18 mph 1021.7mb 19f
5:34pm 12
mph
1021.7mb 19f
5:14pm 17 22 mph 1021.7mb 18f
4:55pm 15
mph
1021.7mb 18f
4:34pm 15
mph
1021.7mb 18f
4:15pm 16 23 mph 1021.7mb 18f
3:55pm 15
mph
1022mb 18f
3:34pm 16 24 mph 1021.7mb 18f
3:15pm 17 23 mph 1022mb 18f
2:55pm 14 22 mph 1021.7mb 18f
2:34pm 15
mph
1021.7mb 18f
2:15pm 15
mph
1021.7mb 18f
1:55pm 17
mph
1021.7mb 18f
1:34pm 13
mph
1022mb 18f
1:15pm 9
mph
1022mb 18f
12:55pm 7
mph
1022.4mb 17f
12:34pm 5
mph
1022.4mb 17f
12:15pm 3
mph
1022.7mb 17f
11:55am 3
mph
1022.7mb 15f
11:34am  -  mph 1022.7mb 15f
11:15am  -  mph 1022.7mb 15f
10:54am  -  mph 1022.7mb 14f
10:34am  -  mph 1023mb 13f
10:15am 7
mph
1023mb 13f
9:54am 3
mph
1022.7mb 13f
9:34am 7
mph
1022.7mb 13f
9:15am 7
mph
1022.7mb 13f
8:54am 14 20 mph 1022.7mb 12f
8:34am 12
mph
1022.4mb 13f
8:15am 9 21 mph 1022.4mb 13f
7:54am 13
mph
1022mb 13f
7:34am 15 24 mph 1022mb 12f
7:15am 17 23 mph 1021.7mb 13f
6:54am 20 27 mph 1021.7mb 12f
6:34am 15 25 mph 1021.3mb 12f
6:15am 15 25 mph 1021mb 12f
5:54am 16 25 mph 1020.7mb 12f
5:34am 16 25 mph 1020.3mb 12f
5:14am 13 24 mph 1020.3mb 13f
4:54am 21 27 mph 1020mb 13f
4:35am 20 29 mph 1019.6mb 13f
4:14am 18 25 mph 1019.3mb 13f
3:54am 18 27 mph 1019mb 13f
3:35am 20 28 mph 1018.3mb 13f
3:14am 15 21 mph 1018.3mb 13f
2:54am 14 22 mph 1018.6mb 13f
2:35am 15 20 mph 1018.3mb 13f
2:14am 15 21 mph 1018.3mb 14f
1:54am 9 17 mph 1017.6mb 14f
1:35am 13 17 mph 1017.6mb 14f
1:14am 13 21 mph 1017.6mb 14f
12:54am 16 22 mph 1017.3mb 15f
12:35am 14
mph
1016.9mb 14f
12:14am 9
mph
1016.9mb 14f
Wed 02/10 11:54pm 10 24 mph 1016.9mb 15f
11:35pm 15 23 mph 1016.9mb 15f
11:14pm 14 24 mph 1016.9mb 15f
10:54pm 18 25 mph 1016.9mb 15f
10:35pm 21 29 mph 1016.9mb 15f
10:14pm 18 29 mph 1016.9mb 15f
9:54pm 17 30 mph 1016.6mb 15f
9:35pm 18 28 mph 1016.9mb 15f
9:14pm 17 27 mph 1016.9mb 15f
8:54pm 23 30 mph 1016.6mb 15f
8:35pm 14 29 mph 1016.6mb 15f
8:14pm 22 29 mph 1016.6mb 15f
7:54pm 21 30 mph 1016.6mb 14f
7:35pm 22 28 mph 1016.6mb 14f
7:14pm 14 25 mph 1016.6mb 14f
6:54pm 18 29 mph 1016.6mb 14f
6:34pm 12 25 mph 1016.3mb 14f
6:14pm 18 28 mph 1015.9mb 14f
5:55pm 20 27 mph 1015.9mb 14f
5:35pm 17 25 mph 1015.6mb 14f
5:14pm 17 30 mph 1015.2mb 13f
4:55pm 20 28 mph 1015.2mb 13f
4:35pm 17 30 mph 1014.9mb 13f
4:14pm 16 25 mph 1014.2mb 13f
3:55pm 15 27 mph 1013.9mb 14f
3:35pm 17 29 mph 1013.9mb 14f
3:14pm 24 30 mph 1013.5mb 14f
2:55pm 21 27 mph 1013.2mb 14f
2:35pm 14 27 mph 1013.2mb 14f
2:14pm 16 23 mph 1012.9mb 14f
1:55pm 15 24 mph 1012.5mb 14f
1:35pm 14 23 mph 1012.5mb 14f
1:14pm 17
mph
1012.5mb 14f
12:55pm 16 24 mph 1012.5mb 13f
12:14pm 16 24 mph 1012.5mb 13f
11:55am 16 24 mph 1012.5mb 13f
11:34am 18 22 mph 1012.5mb 13f
11:14am 10 21 mph 1012.5mb 13f
10:55am 13 24 mph 1012.5mb 13f
10:34am 13 21 mph 1012.5mb 13f
10:15am 17 24 mph 1012.2mb 13f
9:55am 15 21 mph 1012.2mb 13f
9:34am 14 29 mph 1011.9mb 13f
9:15am 16 22 mph 1011.9mb 14f
8:55am 12 20 mph 1011.9mb 13f
8:34am 13 22 mph 1011.5mb 13f
8:15am 15 20 mph 1011.5mb 13f
7:55am 15 22 mph 1011.2mb 13f
7:34am 15 23 mph 1010.8mb 13f
7:15am 15 22 mph 1010.8mb 14f
6:54am 13 21 mph 1010.5mb 14f
6:34am 13 22 mph 1010.5mb 14f
6:15am 14 21 mph 1010.5mb 14f
5:54am 14 21 mph 1010.2mb 14f
5:34am 16 23 mph 1010.2mb 14f
5:15am 16 23 mph 1009.8mb 14f
4:54am 17 25 mph 1009.8mb 14f
4:34am 16 25 mph 1009.8mb 14f
4:15am 17 28 mph 1009.8mb 14f
3:54am 17 25 mph 1009.5mb 15f
3:34am 20 27 mph 1009.5mb 14f
3:15am 20 28 mph 1009.5mb 14f
2:54am 16 29 mph 1009.5mb 15f
2:34am 20 27 mph 1009.5mb 15f
2:15am 17 24 mph 1009.5mb 15f
1:54am 17 28 mph 1009.1mb 15f
1:35am 18 27 mph 1009.1mb 15f
1:15am 16 25 mph 1008.8mb 15f
12:54am 17 28 mph 1008.8mb 16f
12:35am 18 29 mph 1008.8mb 16f
12:15am 23 29 mph 1008.8mb 16f
Tue 02/09 11:54pm 17 28 mph 1008.8mb 17f
11:35pm 20 27 mph 1008.8mb 17f
11:15pm 20 28 mph 1008.8mb 17f
10:54pm 21 27 mph 1008.5mb 18f
10:35pm 18 28 mph 1008.5mb 18f
10:15pm 21 27 mph 1008.5mb 18f
9:54pm 20 27 mph 1008.5mb 19f
9:35pm 17 24 mph 1008.5mb 19f
9:15pm 17 27 mph 1008.5mb 19f
8:54pm 17 23 mph 1008.1mb 20f
8:35pm 17 25 mph 1008.1mb 20f
8:14pm 16 25 mph 1008.1mb 20f
7:54pm 16 24 mph 1008.1mb 21f
7:35pm 14 25 mph 1008.1mb 21f
7:14pm 17 22 mph 1008.1mb 22f
6:54pm 13 25 mph 1008.1mb 22f
6:35pm 15 22 mph 1008.1mb 22f
6:14pm 16 24 mph 1007.8mb 22f
5:54pm 14 23 mph 1007.8mb 22f
5:35pm 17 23 mph 1007.8mb 22f
5:14pm 18 25 mph 1007.5mb 22f
4:54pm 17 25 mph 1007.1mb 23f
4:35pm 16 25 mph 1007.1mb 23f
4:14pm 13 24 mph 1006.8mb 23f
3:54pm 16 23 mph 1006.4mb 23f
3:35pm 18 24 mph 1006.4mb 24f
3:14pm 17 28 mph 1006.1mb 24f
2:55pm 15 24 mph 1005.8mb 25f
2:34pm 16 25 mph 1005.4mb 25f
2:14pm 15 20 mph 1005.1mb 26f
1:55pm 12
mph
1005.1mb 26f
1:34pm 13 17 mph 1004.7mb 26f
1:14pm 14 20 mph 1004.7mb 26f
12:55pm 14
mph
1004.7mb 26f
12:34pm 13
mph
1004.7mb 26f
12:14pm 14 18 mph 1004.7mb 26f
11:55am 13 20 mph 1004.7mb 26f
11:34am 13 18 mph 1005.1mb 26f
11:14am 16 21 mph 1005.1mb 26f
10:55am 13 20 mph 1005.1mb 26f
10:34am 14 18 mph 1005.4mb 26f
10:14am 13 20 mph 1005.1mb 25f
9:55am 13 18 mph 1005.1mb 25f
9:34am 12
mph
1005.1mb 25f
9:14am 13 20 mph 1005.1mb 25f
8:55am 13 17 mph 1005.1mb 25f
8:34am 12 18 mph 1005.1mb 25f
8:14am 12 16 mph 1005.1mb 24f
7:55am 12
mph
1005.1mb 24f
7:34am 13
mph
1005.1mb 24f
7:14am 12 18 mph 1005.1mb 24f
6:55am 12 17 mph 1005.1mb 24f
6:34am 14 18 mph 1004.7mb 25f
6:14am 12
mph
1004.7mb 25f
5:55am 13 20 mph 1004.4mb 25f
5:34am 13 17 mph 1004.4mb 25f
5:14am 12
mph
1004.4mb 25f
4:55am 13 17 mph 1004.4mb 25f
4:34am 13 24 mph 1004.4mb 25f
4:15am 13 21 mph 1004.1mb 26f
3:55am 13 20 mph 1004.1mb 26f
3:34am 13 18 mph 1004.1mb 26f
3:15am 13 16 mph 1004.1mb 26f
2:55am 13 17 mph 1004.1mb 26f
2:34am 8
mph
1004.1mb 26f
2:15am 9
mph
1004.4mb 26f
1:55am 10 18 mph 1004.4mb 25f
1:34am 13 18 mph 1004.4mb 25f
1:15am 14
mph
1004.4mb 25f
12:55am 10 18 mph 1004.4mb 25f
12:34am 10
mph
1004.7mb 25f